[[{"header":{"parameterUnit":"m.s-1","parameterCategory":1,"la1":30.2991,"la2":30.254,"lo1":-89.0895,"lo2":-89.0444,"dy":0.0017,"dx":0.0017,"nx":28,"ny":28,"refTime":"2024-07-09T21:00:00:Z","depth":0,"parameterNumber":2,"parameterNumberName":"U-component_of_WINDS"},"data":[0,0,0,0,0,0,0,0,0,0,0,0,0,0,0,0,0,0,0,0,0,0,0,0,0,0,0,0,0,0,0,0,0,0,0,0,0,0,0,0,0,0,0,0,0,0,0,0,0,0,0,0,0,0,0,0,0,0,1.0706,1.0706,0,1.0791,1.0792,1.0793,1.0796,1.0795,1.0794,1.0793,1.0885,1.0888,1.0891,0,0,0,0,0,0,0,0,0,0,0,0,0,1.0549,1.0552,1.0705,1.0707,1.0708,1.0791,1.0792,1.0793,1.0796,1.0795,1.0794,1.0793,1.0884,1.0888,1.0892,0,0,0,0,0,0,0,0,0,0,0,0,0,1.0624,1.0553,1.0705,1.0719,1.0721,1.079,1.0792,1.0793,1.0797,1.0795,1.0794,1.0792,1.0882,1.0887,1.0892,1.0955,0,0,1.0908,1.091,0,0,0,0,0,0,0,0,1.062,1.063,1.0716,1.0718,1.0721,1.0781,1.077,1.0848,1.0797,1.0768,1.0793,1.0791,1.0852,1.0859,1.0879,1.0959,1.0963,1.0908,1.0911,1.0914,1.0915,0,0,0,0,0,0,0,1.0615,1.0626,1.0739,1.0717,1.072,1.0722,1.0731,1.0785,1.0818,1.0771,1.0771,1.0781,1.0853,1.0874,1.0881,1.0964,1.0908,1.0913,1.0916,1.0918,1.11,1.1102,0,0,0,0,0,0,1.0606,1.0622,1.0737,1.0742,1.0665,1.0726,1.0736,1.0763,1.0817,1.0824,1.0782,1.0781,1.0866,1.0875,1.0884,1.0961,1.0914,1.0918,1.0921,1.1098,1.1101,1.1102,0,0,0,0,0,0,1.0603,1.0616,1.0733,1.0682,1.0697,1.0731,1.0761,1.0766,1.0787,1.0826,1.0832,1.0797,1.0865,1.0877,1.0937,1.0964,1.0921,1.0925,1.1096,1.1099,1.1102,1.1114,0,0,0,0,0,0,1.0598,1.0615,1.0638,1.0683,1.07,1.0783,1.0763,1.0769,1.0795,1.0794,1.0842,1.0848,1.0865,1.0929,1.0942,1.097,1.0929,1.1094,1.1098,1.1101,1.1111,1.1117,1.1122,0,0,0,0,0,1.0593,1.0639,1.0639,1.0653,1.0729,1.0785,1.0795,1.0812,1.0797,1.0821,1.0846,1.0847,1.0959,1.0935,1.095,1.098,1.1092,1.1097,1.11,1.1109,1.1116,1.1121,0,0,0,0,0,0,1.0599,1.0645,1.0646,1.0708,1.0742,1.0785,1.0816,1.0818,1.0858,1.0856,1.0877,1.0887,1.0947,1.0969,1.0942,1.1043,1.1024,1.1031,1.1026,1.1033,1.1038,1.1031,1.0934,0,0,0,0,0,1.0607,1.0647,1.0686,1.0737,1.0754,1.0782,1.0807,1.0817,1.0854,1.0869,1.0898,1.0935,1.0979,1.1007,1.1049,1.1115,1.1126,1.1143,1.1148,1.1152,1.1158,1.1194,1.1202,1.1116,1.1116,1.1116,0,0,1.0625,1.0655,1.068,1.0739,1.0767,1.0809,1.0794,1.0839,1.0871,1.0876,1.0934,1.0957,1.0999,1.1062,1.1091,1.1083,1.1184,1.1157,1.116,1.1164,1.1199,1.1207,1.1215,1.1118,1.1118,1.1117,0,0,1.0679,1.0706,1.0751,1.0779,1.082,1.0839,1.085,1.0892,1.0907,1.0965,1.097,1.1009,1.1083,1.1114,1.1139,1.1204,1.1206,1.1218,1.1244,1.128,1.1286,1.1293,1.1316,1.1324,1.1224,1.1224,1.1224,0,1.0696,1.0758,1.0774,1.0819,1.0846,1.0851,1.0897,1.0924,1.0978,1.0997,1.0986,1.108,1.1109,1.1179,1.1195,1.1215,1.1229,1.1212,1.1284,1.129,1.1296,1.1319,1.1328,1.1225,1.1225,1.1224,1.1224,0,1.0778,1.0821,1.0853,1.0903,1.0933,1.0979,1.1003,1.1031,1.1039,1.1059,1.1118,1.1153,1.1203,1.122,1.1229,1.1292,1.1285,1.1279,1.1261,1.1305,1.1327,1.1336,1.1226,1.1226,1.1225,1.1225,0,0,1.0837,1.0896,1.0907,1.093,1.0977,1.1011,1.1057,1.1104,1.1129,1.1166,1.1206,1.1269,1.1263,1.1292,1.1304,1.1335,1.1385,1.1325,1.1327,1.1335,1.1457,1.1461,1.147,1.1386,1.1388,1.139,1.1453,0,1.0896,1.0977,1.0993,1.1064,1.1104,1.111,1.115,1.1184,1.1204,1.1242,1.1265,1.1309,1.1298,1.1315,1.1346,1.1372,1.141,1.1368,1.1425,1.1426,1.1413,1.1482,1.1486,1.1544,1.1462,1.1463,1.1464,0,1.0976,1.1013,1.1087,1.1128,1.1146,1.1182,1.1226,1.1263,1.1301,1.1314,1.1345,1.1354,1.1404,1.1383,1.1452,1.1423,1.1447,1.1464,1.1466,1.1472,1.1448,1.1489,1.1563,1.1572,1.1478,1.1477,1.1476,0,1.1011,1.1081,1.1134,1.1154,1.1203,1.1228,1.125,1.1287,1.1315,1.1354,1.1372,1.1417,1.1442,1.1478,1.1499,1.1481,1.1566,1.1547,1.1579,1.1578,1.1596,1.1595,1.1675,1.1612,1.1612,1.1612,1.1612,0,1.1075,1.1121,1.1151,1.1184,1.1235,1.1254,1.1304,1.1326,1.1359,1.1397,1.1406,1.1441,1.1467,1.1507,1.1524,1.1579,1.159,1.1602,1.1606,1.1602,1.16,1.1618,1.1614,1.1614,1.1614,1.1613,1.1613,0,1.1124,1.1146,1.1205,1.1246,1.1258,1.1294,1.133,1.1363,1.1382,1.1431,1.1443,1.1475,1.1522,1.1547,1.1607,1.1618,1.168,1.1681,1.1666,1.1668,1.1698,1.1695,1.1792,1.1806,1.1734,1.1735,1.1735,0,1.1163,1.1198,1.1243,1.1268,1.129,1.1331,1.1359,1.1379,1.1407,1.1454,1.1481,1.1529,1.1568,1.1644,1.1673,1.1719,1.1722,1.1753,1.1729,1.1723,1.1722,1.1719,1.1723,1.1757,1.1757,1.1758,1.1758,0,1.123,1.1239,1.1278,1.132,1.1353,1.1388,1.1422,1.1443,1.1469,1.1501,1.1549,1.1579,1.1639,1.1686,1.1734,1.1758,1.1763,1.1766,1.1776,1.1771,1.176,1.1766,1.1677,1.1763,1.1763,1.1763,1.1762,1.1762,1.1275,1.1306,1.1342,1.1385,1.1413,1.1445,1.1478,1.1502,1.1541,1.1591,1.1601,1.1651,1.169,1.1754,1.178,1.1821,1.1815,1.1829,1.1832,1.1835,1.1837,1.1754,1.183,1.183,1.183,1.183,1.183,0,1.1342,1.1366,1.1405,1.1452,1.1486,1.1487,1.1525,1.1554,1.1598,1.1633,1.167,1.1726,1.1772,1.1804,1.1852,1.1878,1.1881,1.189,1.1888,1.1894,1.184,1.1826,1.1886,1.1886,1.1886,1.1886,1.1886,1.1886,1.1381,1.1433,1.1447,1.1514,1.1538,1.1586,1.1608,1.1638,1.1666,1.1727,1.1764,1.1785,1.1819,1.1869,1.1912,1.192,1.1937,1.1946,1.1954,1.1903,1.1897,1.1892,1.1879,1.1949,1.1949,1.2005,1.2005,1.2006]},{"header":{"parameterUnit":"m.s-1","parameterCategory":1,"la1":30.2991,"la2":30.254,"lo1":-89.0895,"lo2":-89.0444,"dy":0.0017,"dx":0.0017,"nx":28,"ny":28,"refTime":"2024-07-09T21:00:00:Z","depth":0,"parameterNumber":3,"parameterNumberName":"V-component_of_WINDS"},"data":[0,0,0,0,0,0,0,0,0,0,0,0,0,0,0,0,0,0,0,0,0,0,0,0,0,0,0,0,0,0,0,0,0,0,0,0,0,0,0,0,0,0,0,0,0,0,0,0,0,0,0,0,0,0,0,0,0,0,2.7424,2.7425,0,2.7453,2.7454,2.7454,2.7459,2.7459,2.7458,2.7458,2.7485,2.7486,2.7487,0,0,0,0,0,0,0,0,0,0,0,0,0,2.737,2.7371,2.7424,2.7425,2.7425,2.7453,2.7454,2.7454,2.7459,2.7459,2.7458,2.7458,2.7485,2.7486,2.7487,0,0,0,0,0,0,0,0,0,0,0,0,0,2.7396,2.7372,2.7424,2.7431,2.7432,2.7453,2.7454,2.7454,2.7459,2.7459,2.7458,2.7458,2.7484,2.7486,2.7487,2.7503,0,0,2.7491,2.7492,0,0,0,0,0,0,0,0,2.7394,2.7398,2.743,2.743,2.7432,2.7452,2.7445,2.7471,2.7459,2.7449,2.7458,2.7458,2.7474,2.7476,2.7483,2.7504,2.7506,2.7492,2.7492,2.7493,2.7493,0,0,0,0,0,0,0,2.7393,2.7397,2.7436,2.743,2.7431,2.7432,2.7435,2.7449,2.7463,2.7449,2.745,2.7453,2.7475,2.7481,2.7483,2.7506,2.7491,2.7493,2.7494,2.7494,2.7542,2.7543,0,0,0,0,0,0,2.739,2.7395,2.7435,2.7437,2.7412,2.7433,2.7436,2.7446,2.7463,2.7465,2.7454,2.7454,2.7479,2.7482,2.7484,2.7504,2.7493,2.7494,2.7495,2.7542,2.7542,2.7543,0,0,0,0,0,0,2.7389,2.7394,2.7434,2.7416,2.7421,2.7434,2.7445,2.7447,2.7453,2.7466,2.7468,2.7458,2.7479,2.7482,2.7499,2.7505,2.7495,2.7496,2.7541,2.7542,2.7542,2.7544,0,0,0,0,0,0,2.7387,2.7393,2.74,2.7416,2.7422,2.7448,2.7445,2.7447,2.7456,2.7456,2.7471,2.7473,2.7479,2.7496,2.75,2.7507,2.7497,2.7541,2.7541,2.7542,2.7543,2.7544,2.7545,0,0,0,0,0,2.7385,2.7398,2.74,2.7405,2.7431,2.7449,2.7452,2.7459,2.7457,2.7463,2.7471,2.7472,2.7504,2.7498,2.7502,2.7509,2.754,2.7541,2.7542,2.7542,2.7544,2.7545,0,0,0,0,0,0,2.7381,2.7401,2.7403,2.7422,2.7434,2.7449,2.7458,2.7461,2.7473,2.7472,2.748,2.7483,2.7499,2.7506,2.7499,2.7526,2.7522,2.7524,2.7521,2.7522,2.7523,2.7521,2.7499,0,0,0,0,0,2.7383,2.7397,2.7412,2.7427,2.7433,2.7445,2.7453,2.7457,2.747,2.7474,2.7484,2.7495,2.7507,2.7515,2.7527,2.7544,2.7547,2.7551,2.7552,2.7553,2.7554,2.7564,2.7565,2.7546,2.7546,2.7546,0,0,2.7386,2.7398,2.7406,2.7427,2.7437,2.745,2.7449,2.7463,2.7472,2.7476,2.7492,2.75,2.7512,2.7529,2.7537,2.7535,2.7561,2.7554,2.7555,2.7556,2.7565,2.7567,2.7568,2.7546,2.7546,2.7546,0,0,2.7398,2.7409,2.7422,2.7433,2.7448,2.7455,2.7459,2.7474,2.748,2.7496,2.7499,2.751,2.7532,2.7541,2.7548,2.7564,2.7565,2.7568,2.7573,2.7582,2.7583,2.7585,2.759,2.7592,2.7569,2.7569,2.7569,0,2.7399,2.742,2.7429,2.7443,2.7452,2.7457,2.7471,2.748,2.7498,2.7503,2.7502,2.7529,2.7537,2.7556,2.756,2.7566,2.757,2.7566,2.7583,2.7584,2.7586,2.7591,2.7593,2.7569,2.7569,2.7569,2.7569,0,2.7421,2.7435,2.7444,2.7463,2.7472,2.7486,2.7496,2.7505,2.7509,2.7517,2.7533,2.7545,2.7559,2.7564,2.7568,2.7583,2.7582,2.7581,2.7577,2.7587,2.7592,2.7594,2.7569,2.7569,2.7569,2.7569,0,0,2.743,2.7454,2.7457,2.7466,2.7483,2.7494,2.7507,2.7523,2.753,2.7542,2.7553,2.7572,2.7571,2.758,2.7584,2.7592,2.7604,2.7591,2.7591,2.7592,2.7621,2.7621,2.7624,2.7605,2.7606,2.7606,2.762,0,2.7444,2.7469,2.7478,2.7499,2.7512,2.7518,2.7529,2.7541,2.7548,2.756,2.7568,2.758,2.7579,2.7584,2.7593,2.7601,2.761,2.76,2.7615,2.7615,2.7611,2.7626,2.7626,2.7639,2.7622,2.7623,2.7623,0,2.7463,2.7477,2.7499,2.7515,2.7521,2.7532,2.7546,2.7558,2.7571,2.7575,2.7585,2.7589,2.7603,2.7599,2.7618,2.7611,2.7617,2.7622,2.7623,2.7624,2.7619,2.7627,2.7644,2.7646,2.7626,2.7626,2.7626,0,2.7467,2.7491,2.7508,2.7515,2.7534,2.7541,2.755,2.7562,2.7571,2.7584,2.7589,2.7603,2.761,2.762,2.7628,2.7624,2.7646,2.7642,2.7649,2.7649,2.7653,2.7653,2.767,2.7658,2.7658,2.7658,2.7658,0,2.7481,2.7495,2.751,2.752,2.7535,2.7545,2.7559,2.7568,2.7579,2.759,2.7596,2.7606,2.7616,2.7627,2.7633,2.7647,2.765,2.7654,2.7655,2.7653,2.7653,2.7657,2.7657,2.7659,2.7658,2.7658,2.7658,0,2.7488,2.7499,2.7518,2.7535,2.7539,2.755,2.7564,2.7573,2.7581,2.7596,2.7599,2.7611,2.7625,2.7634,2.7651,2.7655,2.7671,2.7672,2.7667,2.7667,2.7674,2.7673,2.7694,2.7698,2.7684,2.7684,2.7684,0,2.7496,2.7507,2.7525,2.7534,2.7542,2.7556,2.7565,2.7575,2.7584,2.76,2.7607,2.7622,2.7634,2.7655,2.7665,2.7678,2.7679,2.7686,2.7681,2.7679,2.7679,2.7678,2.7679,2.7686,2.7686,2.7687,2.7687,0,2.7509,2.7514,2.7528,2.7543,2.7554,2.7567,2.7579,2.7585,2.7597,2.7607,2.7622,2.7631,2.7649,2.7663,2.7677,2.7684,2.7687,2.7688,2.7691,2.7688,2.7685,2.7686,2.7668,2.7688,2.7687,2.7687,2.7687,2.7687,2.7517,2.7526,2.7541,2.7556,2.7567,2.7578,2.7588,2.7598,2.7611,2.7627,2.7631,2.7647,2.7659,2.7679,2.7686,2.7698,2.7697,2.77,2.7701,2.7702,2.7702,2.7683,2.77,2.77,2.77,2.77,2.77,0,2.753,2.754,2.7553,2.7571,2.7582,2.7585,2.7599,2.7608,2.7622,2.7634,2.7646,2.7663,2.7676,2.7688,2.7701,2.7708,2.771,2.7712,2.7711,2.7713,2.7702,2.7698,2.771,2.771,2.771,2.771,2.771,2.771,2.7538,2.7554,2.7561,2.7583,2.7593,2.7608,2.7616,2.7626,2.7636,2.7655,2.7667,2.7674,2.7686,2.7701,2.7713,2.7716,2.7721,2.7722,2.7725,2.7714,2.7713,2.7712,2.7709,2.7723,2.7723,2.7735,2.7735,2.7735]}]]